Weather reports worldwide

Advertisment
Grazzanise, Italy (16253): temperature & dewpoint: 11.09.2019 13:00:00 - 17.09.2019 13:00:00 (CEST)Grazzanise, Italy (16253): wind speed: 11.09.2019 13:00:00 - 17.09.2019 13:00:00 (CEST)Grazzanise, Italy (16253): wind direction: 11.09.2019 13:00:00 - 17.09.2019 13:00:00 (CEST)Grazzanise, Italy (16253): reduced air pressure: 11.09.2019 13:00:00 - 17.09.2019 13:00:00 (CEST)Grazzanise, Italy (16253): visibility: 11.09.2019 13:00:00 - 17.09.2019 13:00:00 (CEST)Grazzanise, Italy (16253): sunshine duration: 11.09.2019 13:00:00 - 17.09.2019 13:00:00 (CEST)
Date & Time tt [°C] td [°C] ff [km/h] ff [kn] dd ppp [hPa] vv [km] sd [min]
17.09.2019 13:00:00 29,0 21,0 15 8 SW - 10 -
17.09.2019 12:00:00 28,0 22,0 5 3 WSW - 10 -
17.09.2019 11:00:00 27,2 21,7 5 3 W 1018,2 10 60
17.09.2019 10:00:00 26,0 21,0 4 2 E - 7 -
17.09.2019 09:00:00 22,0 20,0 5 3 NNE - 7 -
17.09.2019 08:00:00 18,4 16,7 8 4 NNE 1017,8 7 12
17.09.2019 07:00:00 18,0 16,0 5 3 N - 10 -
17.09.2019 06:00:00 18,0 16,0 5 3 NNE - 10 -
17.09.2019 05:00:00 18,4 16,7 5 3 N 1017,4 15 -
17.09.2019 04:00:00 19,0 17,0 4 2 E - 10 -
17.09.2019 03:00:00 19,0 18,0 5 3 N - 10 -
17.09.2019 02:00:00 19,0 18,7 4 2 N 1018,3 15 -
17.09.2019 01:00:00 20,0 19,0 4 2 NNE - 10 -
17.09.2019 00:00:00 20,0 20,0 4 2 E - 10 -
16.09.2019 23:00:00 21,2 21,0 4 2 N 1018,4 15 -
16.09.2019 22:00:00 22,0 22,0 4 2 S - 10 -
16.09.2019 21:00:00 23,0 23,0 4 2 SSW - 10 -
16.09.2019 20:00:00 24,4 23,5 8 4 W 1018,2 15 -
16.09.2019 19:00:00 27,0 24,0 11 6 WSW - 10 -
16.09.2019 18:00:00 28,0 23,0 15 8 WSW - 10 -
16.09.2019 17:00:00 29,0 21,8 18 10 WSW 1018,2 20 60
16.09.2019 16:00:00 30,0 20,0 15 8 WSW - 10 -
16.09.2019 15:00:00 31,0 18,0 15 8 WSW - 10 -
16.09.2019 14:00:00 29,0 19,0 9 5 W 1019,4 20 48
16.09.2019 13:00:00 29,0 20,0 8 4 WSW - 10 -
16.09.2019 12:00:00 28,0 20,0 5 3 WSW - 10 -
16.09.2019 11:00:00 28,4 19,4 4 2 NNE 1020,2 20 60
16.09.2019 10:00:00 25,0 19,0 9 5 ENE - 10 -
16.09.2019 09:00:00 22,0 20,0 5 3 NE - 10 -
16.09.2019 08:00:00 18,4 18,1 5 3 NNE 1019,8 20 6
16.09.2019 07:00:00 18,0 18,0 5 3 NNE - 10 -
16.09.2019 06:00:00 18,0 17,0 5 3 N - 10 -
16.09.2019 05:00:00 18,4 17,6 4 2 N 1020,2 12 -
16.09.2019 04:00:00 18,0 17,0 5 3 NNE - 10 -
16.09.2019 03:00:00 20,0 17,0 5 3 NE - 10 -
16.09.2019 02:00:00 19,2 19,0 8 4 ENE 1021,0 12 -
16.09.2019 01:00:00 19,0 19,0 5 3 NE - 10 -
16.09.2019 00:00:00 19,0 19,0 5 3 N - 10 -
15.09.2019 23:00:00 21,2 20,5 0 0 N 1021,1 12 -
15.09.2019 22:00:00 23,0 20,0 4 2 SE - 10 -
15.09.2019 21:00:00 23,0 21,0 4 2 SSW - 10 -
15.09.2019 20:00:00 24,4 21,7 4 2 WSW 1021,1 12 6
15.09.2019 19:00:00 26,0 19,0 11 6 W - 10 -
15.09.2019 18:00:00 27,0 17,0 15 8 W - 10 -
15.09.2019 17:00:00 29,2 15,7 15 8 W 1021,2 15 60
15.09.2019 16:00:00 30,0 14,0 18 10 WSW - 10 -
15.09.2019 15:00:00 31,0 14,0 15 8 WSW - 10 -
15.09.2019 14:00:00 32,0 13,3 13 7 NNE 1022,4 15 60
15.09.2019 13:00:00 31,0 15,0 8 4 W - 10 -
15.09.2019 12:00:00 29,0 14,0 15 8 NE - 10 -
15.09.2019 11:00:00 28,4 15,7 15 8 NE 1024,2 15 60
15.09.2019 10:00:00 26,0 15,0 15 8 ENE - 10 -
15.09.2019 09:00:00 24,0 17,0 13 7 NNE - 10 -
15.09.2019 08:00:00 19,6 15,0 11 6 NE 1023,6 15 30
15.09.2019 07:00:00 17,0 15,0 11 6 NNE - 10 -
15.09.2019 06:00:00 17,0 14,0 8 4 NNE - 10 -
15.09.2019 05:00:00 17,0 15,4 9 5 ENE 1023,8 10 -
15.09.2019 04:00:00 16,0 16,0 5 3 N - 10 -
15.09.2019 03:00:00 17,0 17,0 8 4 NE - 10 -
15.09.2019 02:00:00 17,0 16,7 5 3 NNE 1023,5 10 -
15.09.2019 01:00:00 19,0 18,0 4 2 E - 10 -
15.09.2019 00:00:00 20,0 20,0 0 0 N - 10 -
14.09.2019 23:00:00 20,4 20,4 2 1 NNE 1024,1 10 -
14.09.2019 22:00:00 22,0 20,0 5 3 E - 10 -
14.09.2019 21:00:00 23,0 21,0 4 2 SE - 10 -
14.09.2019 20:00:00 24,8 21,5 8 4 W 1023,0 15 -
14.09.2019 19:00:00 27,0 21,0 9 5 WSW - 10 -
14.09.2019 18:00:00 28,0 19,0 18 10 W - 10 -
14.09.2019 17:00:00 30,0 13,7 21 11 W 1023,2 20 60
14.09.2019 16:00:00 33,0 12,0 8 4 ENE - 10 -
14.09.2019 15:00:00 33,0 12,0 5 3 E - 10 -
14.09.2019 14:00:00 31,8 12,1 11 6 E 1024,2 20 60
14.09.2019 13:00:00 31,0 12,0 11 6 NE - 10 -
14.09.2019 12:00:00 30,0 16,0 13 7 NE - 10 -
14.09.2019 11:00:00 28,0 16,3 16 9 NE 1025,2 20 60
14.09.2019 10:00:00 26,0 17,0 15 8 NNE - 10 -
14.09.2019 09:00:00 23,0 18,0 8 4 NNE - 10 -
14.09.2019 08:00:00 19,4 16,8 8 4 NNE 1025,2 20 18
14.09.2019 07:00:00 19,0 17,0 9 5 NNE - 10 -
14.09.2019 06:00:00 19,0 17,0 9 5 NNE - 10 -
14.09.2019 05:00:00 19,2 16,4 5 3 NE 1024,7 14 -
14.09.2019 04:00:00 20,0 16,0 9 5 NE - 10 -
14.09.2019 03:00:00 21,0 17,0 5 3 ENE - 10 -
14.09.2019 02:00:00 21,0 16,6 8 4 ENE 1025,2 14 -
14.09.2019 01:00:00 22,0 18,0 11 6 NNE - 10 -
14.09.2019 00:00:00 22,0 18,0 9 5 NNE - 10 -
13.09.2019 23:00:00 21,6 18,0 4 2 NNE 1025,2 14 -
13.09.2019 22:00:00 22,0 18,0 0 0 N - 10 -
13.09.2019 21:00:00 23,0 17,0 4 2 E - 10 -
13.09.2019 20:00:00 26,2 16,7 8 4 ESE 1024,2 14 -
13.09.2019 19:00:00 30,0 17,0 11 6 E - 10 -
13.09.2019 18:00:00 32,0 13,0 18 10 E - 10 -
13.09.2019 17:00:00 32,8 13,0 21 11 E 1024,1 15 60
13.09.2019 16:00:00 33,0 13,0 21 11 E - 10 -
13.09.2019 15:00:00 33,0 14,0 22 12 E - 10 -
13.09.2019 14:00:00 32,4 13,6 22 12 E 1025,4 12 60
13.09.2019 13:00:00 32,0 13,0 28 15 ENE - 10 -
13.09.2019 12:00:00 31,0 17,0 24 13 NE - 10 -
13.09.2019 11:00:00 29,6 15,7 18 10 ENE 1026,7 12 -
13.09.2019 10:00:00 27,0 17,0 15 8 ENE - 10 -
13.09.2019 09:00:00 24,0 17,0 11 6 NE - 10 -
13.09.2019 08:00:00 20,0 16,8 8 4 E 1026,2 20 -
13.09.2019 07:00:00 18,0 16,0 4 2 N - 10 -
13.09.2019 06:00:00 18,0 16,0 8 4 NNE - 10 -
13.09.2019 05:00:00 18,2 15,6 8 4 WSW 1025,6 12 0
13.09.2019 04:00:00 18,0 17,0 9 5 N - 10 -
13.09.2019 03:00:00 20,0 18,0 0 0 N - 10 -
13.09.2019 02:00:00 20,0 16,8 9 5 NE 1025,5 12 0
13.09.2019 01:00:00 20,0 17,0 4 2 E - 10 -
13.09.2019 00:00:00 21,0 17,0 4 2 ESE - 10 -
12.09.2019 23:00:00 22,0 17,6 9 5 NNE 1025,2 12 0
12.09.2019 22:00:00 22,0 22,0 8 4 NNE - 10 -
12.09.2019 21:00:00 24,0 23,0 5 3 SW - 10 -
12.09.2019 20:00:00 25,0 23,4 5 3 SW 1024,0 15 0
12.09.2019 19:00:00 27,0 24,0 8 4 WSW - 10 -
12.09.2019 18:00:00 28,0 22,0 11 6 W - 10 -
12.09.2019 17:00:00 28,8 20,3 16 9 W 1023,7 30 60
12.09.2019 16:00:00 30,0 18,0 16 9 W - 10 -
12.09.2019 15:00:00 31,0 18,0 15 8 W - 10 -
12.09.2019 14:00:00 31,0 16,2 11 6 W 1024,1 30 60
12.09.2019 13:00:00 31,0 15,0 5 3 N - 10 -
12.09.2019 12:00:00 30,0 16,0 8 4 NNE - 10 -
12.09.2019 11:00:00 29,0 16,5 8 4 NE 1024,4 30 60
12.09.2019 10:00:00 28,0 19,0 15 8 NE - 10 -
12.09.2019 09:00:00 24,0 19,0 11 6 NE - 10 -
12.09.2019 08:00:00 20,0 19,7 9 5 NNE 1023,4 25 0
12.09.2019 07:00:00 20,0 19,0 9 5 N - 10 -
12.09.2019 06:00:00 21,0 19,0 11 6 NNE - 10 -
12.09.2019 05:00:00 20,0 19,2 4 2 NNE 1021,4 15 -
12.09.2019 04:00:00 21,0 20,0 9 5 N - 10 -
12.09.2019 03:00:00 23,0 20,0 8 4 NE - 10 -
12.09.2019 02:00:00 23,0 19,4 8 4 NE 1021,2 15 -
12.09.2019 01:00:00 23,0 18,0 11 6 NE - 10 -
12.09.2019 00:00:00 23,0 19,0 8 4 NE - 10 -
11.09.2019 23:00:00 23,0 18,8 9 5 NE 1020,4 15 -
11.09.2019 22:00:00 23,0 22,0 4 2 NNE - 10 -
11.09.2019 21:00:00 23,0 22,0 4 2 NNW - 10 -
11.09.2019 20:00:00 25,6 22,3 8 4 NNW 1019,4 15 -
11.09.2019 19:00:00 28,0 20,0 15 8 W - 10 -
11.09.2019 18:00:00 30,0 17,0 18 10 W - 10 -
11.09.2019 17:00:00 31,6 13,8 9 5 NE 1017,5 20 54
11.09.2019 16:00:00 32,0 14,0 13 7 NE - 10 -
11.09.2019 15:00:00 32,0 15,0 9 5 NNE - 10 -
11.09.2019 14:00:00 31,8 13,1 9 5 ENE 1017,5 20 60
11.09.2019 13:00:00 31,0 14,0 9 5 NNE - 10 -

tt = temperature
td = dewpoint
ff = wind speed
dd = wind direction
ppp = reduced air pressure
vv = visibility
sd = sunshine duration

Next stations